Weather Roundup
Issued by NWS

Home | Current Version | Previous Version | Graphics & Text | Print | Product List | Glossary Off
Versions: 1 2 3 4 5 6 7 8 9 10 11 12 13 14 15 16 17 18 19 20 21 22 23 24 25 26 27 28 29 30 31 32 33 34 35 36 37 38 39 40 41 42 43 44 45 46 47 48 49 50

000
NZUS93 KARX 261410
HRRWXR

CURRENT HOURLY OBSERVATIONS ACROSS
MUCH OF THE UPPER MISSISSIPPI VALLEY
NATIONAL WEATHER SERVICE LA CROSSE WI
800 AM CST FRI DEC 26 2014


...SOUTHEAST MINNESOTA...


CITY           SKY/WX    TMP DP  RH WIND       PRES   REMARKS
ROCHESTER      FOG       24  23  96 NW8       29.90R VSB<1/4 WCI  15
ROCHESTER/MAYO PTSUNNY   31  30  98 NW5       29.90R WCI  26
WINONA         CLEAR     28  27  93 CALM      29.92R
AUSTIN         FOG       27  27 100 N7        29.89R VSB 1   WCI  19
ALBERT LEA     CLOUDY    30  30 100 N7        29.90R FOG     WCI  23
DODGE CENTER   CLOUDY    30  30 100 N8        29.90R FOG     WCI  23
PRESTON        FOG       27  26  99 CALM      29.89R VSB 1/2
OWATONNA       CLOUDY    32  30  93 N8        29.92R FOG     WCI  25
FARIBAULT      CLOUDY    34  30  86 N8        29.94R FOG     WCI  27
$$

...ELSEWHERE IN MINNESOTA...


CITY           SKY/WX    TMP DP  RH WIND       PRES   REMARKS
MINNEAPOLIS    CLOUDY    32  29  88 N13       29.97R WCI  22
INTNL FALLS    CLOUDY    21  18  88 NW3       30.04R
DULUTH         FLURRIES  27  22  81 N9        29.97R WCI  18
RED WING       CLOUDY    34  30  86 CALM      29.93R
REDWOOD FALLS  CLOUDY    30  27  88 N8        30.01R WCI  22
MANKATO        CLOUDY    32  27  80 N13       29.95R WCI  22
WORTHINGTON    CLOUDY    27 -20  12 N21G26    29.97R WCI  13
FAIRMONT       CLOUDY    30  27  86 N14       29.94R WCI  20
$$

...SOUTHWEST WISCONSIN...


CITY           SKY/WX    TMP DP  RH WIND       PRES   REMARKS
LA CROSSE      CLEAR     24  22  91 CALM      29.91R
PRAIRIE DU CHI PTCLDY    31  29  92 CALM      29.91R
BOSCOBEL       CLEAR     27  24  89 CALM      29.93R FOG
LONE ROCK      CLEAR     36  30  79 CALM      29.93R
PLATTEVILLE    CLEAR     36  33  88 CALM      29.94R
FORT MC COY    CLEAR     22  21  98 CALM      29.92R
CAMP DOUGLAS   FOG       21  21 100 CALM      29.92R VSB 1/4
VIROQUA        FAIR      32  32 100 SE7       29.89S WCI  25
WIS DELLS      CLEAR     36  32  85 SW7       29.91R WCI  31
$$

...ELSEWHERE IN WISCONSIN...


CITY           SKY/WX    TMP DP  RH WIND       PRES   REMARKS
MILWAUKEE      MOCLDY    38  32  79 SW10      29.97R WCI  31
MADISON        PTCLDY    36  32  85 S7        29.93S WCI  30
GREEN BAY      FOG       30  29  96 CALM      29.95S VSB 1/2
EAU CLAIRE     CLOUDY    32  29  88 NE5       29.92R WCI  27
BLACK RVR FLS  FAIR      19  19 100 CALM      29.91S
MEDFORD        CLOUDY    29  28  97 NE6       29.90R FOG     WCI  22
WAUSAU         FOG       27  27 100 E5        29.90R VSB 1/4 WCI  22
WIS RAPIDS     MOCLDY    24  22  91 CALM      29.93R FOG
MARSHFIELD     FOG       26  25  96 CALM      29.90R VSB 1/4
RICE LAKE      CLOUDY    32  29  91 N8        29.94S WCI  24
$$

...NORTHEAST IOWA...


CITY           SKY/WX    TMP DP  RH WIND       PRES   REMARKS
DECORAH        CLEAR     34  30  86 S5        29.87S WCI  30
MASON CITY     FOG       27  26  96 NW12      29.91R VSB 1/4 WCI  17
CHARLES CITY   CLEAR     28  28 100 CALM      29.88S
OELWEIN        CLEAR     30  28  93 S6        29.90R WCI  24
$$

...ELSEWHERE IN IOWA...


CITY           SKY/WX    TMP DP  RH WIND       PRES   REMARKS
DES MOINES     MOCLDY    34  29  82 S6        29.90R WCI  29
IOWA CITY      PTCLDY    36  31  82 CALM      29.94R
FORT DODGE     CLOUDY    30  28  93 N13G22    29.91R WCI  20
$$

...NORTHERN ILLINOIS...


CITY           SKY/WX    TMP DP  RH WIND       PRES   REMARKS
CHICAGO-OHARE  PTCLDY    37  32  82 S9        30.00R WCI  30
CHICAGO-MIDWAY FAIR      39  34  82 S9G20     30.03R WCI  33
MOLINE         MOCLDY    41  34  76 S10       29.94R
ROCKFORD       MOCLDY    35  32  88 SE7       29.99R WCI  29
PEORIA         PTCLDY    37  33  85 S8        30.02R WCI  31
$$

NOTE: "FAIR" INDICATES FEW OR NO CLOUDS BELOW 12,000 FEET WITH NO
SIGNIFICANT WEATHER AND/OR OBSTRUCTIONS TO VISIBILITY. WIND
SPEEDS ARE IN MILES-PER-HOUR.



USA.gov is the U.S. government's official web portal to all federal, state and local government web resources and services.